Total_Precipitation_Accumulation
0.70 0.80 0.81 0.63 0.57 0.53 0.47 0.45 0.35 0.22 0.20 0.20 0.21 0.19 0.11 0.07 0.08 0.08 0.07 0.08 0.08 0.07 0.08 0.13 0.19 0.27 0.31 0.32 0.38 0.50 0.62 0.75 0.81 0.87 0.86 0.84 0.91 0.91 0.85 0.78 0.81 0.90 0.85 0.76
0.80 0.64 0.42 0.35 0.37 0.47 0.51 0.50 0.38 0.24 0.23 0.28 0.25 0.19 0.11 0.07 0.07 0.08 0.08 0.07 0.07 0.08 0.09 0.14 0.19 0.25 0.29 0.33 0.37 0.49 0.63 0.74 0.78 0.78 0.84 0.83 0.86 0.88 0.90 0.86 0.85 0.92 0.97 0.90
0.65 0.40 0.29 0.40 0.44 0.54 0.54 0.45 0.33 0.28 0.28 0.32 0.34 0.28 0.15 0.09 0.08 0.10 0.11 0.11 0.10 0.10 0.11 0.15 0.19 0.22 0.25 0.30 0.34 0.40 0.56 0.74 0.81 0.79 0.89 0.96 1.03 1.08 1.07 1.00 0.92 0.92 0.95 0.93
0.53 0.30 0.32 0.46 0.48 0.51 0.52 0.30 0.27 0.31 0.41 0.44 0.39 0.45 0.22 0.13 0.11 0.11 0.13 0.15 0.14 0.12 0.13 0.18 0.21 0.25 0.27 0.32 0.36 0.38 0.48 0.64 0.84 0.87 0.89 0.95 0.99 1.02 1.06 0.99 0.92 0.91 0.95 0.98
0.58 0.32 0.34 0.46 0.39 0.37 0.39 0.27 0.30 0.37 0.47 0.50 0.38 0.48 0.29 0.16 0.15 0.12 0.11 0.12 0.12 0.12 0.15 0.20 0.24 0.29 0.32 0.39 0.46 0.45 0.50 0.58 0.78 0.84 0.84 0.89 0.92 0.94 1.02 1.05 0.99 0.96 0.99 1.03
0.45 0.33 0.34 0.32 0.27 0.29 0.36 0.41 0.48 0.54 0.73 0.77 0.31 0.34 0.34 0.28 0.26 0.18 0.14 0.14 0.14 0.14 0.18 0.22 0.27 0.34 0.39 0.44 0.55 0.55 0.58 0.58 0.70 0.86 0.84 0.81 0.86 0.88 0.94 1.00 1.05 1.06 1.04 1.05
0.58 0.44 0.39 0.32 0.39 0.47 0.59 0.86 1.21 1.21 1.13 0.62 0.15 0.21 0.32 0.27 0.26 0.20 0.16 0.18 0.17 0.17 0.20 0.25 0.31 0.39 0.40 0.43 0.57 0.59 0.60 0.62 0.63 0.78 0.85 0.80 0.80 0.82 0.83 0.90 0.94 1.00 1.06 1.05
0.69 0.56 0.43 0.38 0.46 0.58 0.59 0.75 0.96 0.86 0.53 0.21 0.11 0.18 0.24 0.22 0.17 0.15 0.15 0.16 0.19 0.17 0.18 0.23 0.27 0.34 0.39 0.39 0.50 0.60 0.63 0.65 0.64 0.72 0.85 0.87 0.85 0.87 0.82 0.86 0.92 0.92 0.95 0.96
0.69 0.42 0.27 0.28 0.26 0.33 0.47 0.53 0.47 0.61 0.40 0.23 0.17 0.15 0.17 0.14 0.12 0.13 0.14 0.14 0.18 0.20 0.21 0.23 0.26 0.30 0.32 0.38 0.45 0.52 0.64 0.70 0.70 0.70 0.83 0.99 1.04 0.96 0.87 0.83 0.87 0.89 0.88 0.89
0.78 0.54 0.25 0.28 0.39 0.40 0.43 0.49 0.63 0.85 0.65 0.33 0.17 0.19 0.29 0.23 0.19 0.16 0.14 0.14 0.14 0.19 0.25 0.28 0.28 0.31 0.32 0.34 0.41 0.46 0.58 0.69 0.74 0.71 0.78 0.93 1.15 1.17 1.03 0.96 0.86 0.84 0.83 0.84
0.70 0.73 0.43 0.39 0.57 0.55 0.46 0.59 0.78 0.82 0.57 0.41 0.25 0.25 0.31 0.27 0.21 0.16 0.13 0.11 0.12 0.16 0.20 0.25 0.27 0.34 0.37 0.36 0.40 0.45 0.51 0.61 0.69 0.67 0.72 0.82 0.99 1.22 1.23 1.13 1.01 0.87 0.82 0.80
0.70 0.85 0.62 0.37 0.35 0.37 0.44 0.51 0.64 0.81 0.59 0.34 0.29 0.23 0.17 0.15 0.16 0.13 0.12 0.10 0.11 0.15 0.17 0.20 0.24 0.32 0.37 0.38 0.40 0.43 0.48 0.56 0.63 0.64 0.68 0.77 0.85 1.03 1.25 1.19 1.06 0.93 0.86 0.83
1.08 1.29 1.01 0.71 0.59 0.52 0.59 0.53 0.52 0.58 0.57 0.38 0.30 0.19 0.10 0.09 0.11 0.10 0.10 0.10 0.12 0.14 0.17 0.19 0.25 0.30 0.34 0.40 0.43 0.42 0.45 0.52 0.57 0.64 0.68 0.70 0.79 0.87 0.98 1.13 1.08 0.99 0.93 0.88
1.25 1.35 0.98 0.79 0.64 0.59 0.57 0.41 0.40 0.59 0.70 0.38 0.18 0.13 0.09 0.11 0.14 0.14 0.12 0.12 0.13 0.13 0.17 0.22 0.26 0.27 0.32 0.39 0.46 0.45 0.48 0.51 0.50 0.57 0.65 0.64 0.65 0.73 0.78 0.90 1.08 1.09 1.00 0.92
1.07 1.08 0.55 0.33 0.24 0.26 0.29 0.26 0.25 0.39 0.41 0.31 0.16 0.14 0.15 0.14 0.15 0.17 0.18 0.18 0.17 0.14 0.17 0.24 0.27 0.28 0.33 0.41 0.50 0.53 0.49 0.45 0.42 0.47 0.55 0.61 0.65 0.72 0.75 0.76 0.87 1.05 1.02 0.89
1.01 0.95 0.48 0.27 0.19 0.21 0.22 0.19 0.20 0.22 0.22 0.19 0.13 0.14 0.16 0.15 0.13 0.14 0.17 0.19 0.21 0.20 0.20 0.24 0.29 0.28 0.34 0.41 0.51 0.60 0.53 0.47 0.40 0.43 0.50 0.56 0.65 0.78 0.80 0.75 0.79 0.89 0.98 0.94
0.96 0.95 0.76 0.40 0.19 0.34 0.39 0.26 0.24 0.23 0.20 0.23 0.25 0.20 0.16 0.16 0.16 0.18 0.21 0.21 0.23 0.23 0.25 0.27 0.30 0.34 0.39 0.42 0.49 0.58 0.55 0.51 0.44 0.44 0.50 0.55 0.58 0.72 0.79 0.79 0.83 0.86 0.90 0.97
0.71 0.87 1.06 0.67 0.47 0.72 0.35 0.18 0.19 0.22 0.24 0.26 0.24 0.18 0.16 0.18 0.18 0.18 0.22 0.25 0.27 0.26 0.26 0.28 0.32 0.38 0.38 0.41 0.43 0.49 0.51 0.49 0.47 0.47 0.53 0.57 0.55 0.60 0.73 0.83 0.84 0.85 0.85 0.87
0.39 0.77 1.24 1.04 0.75 0.43 0.20 0.17 0.22 0.27 0.30 0.23 0.18 0.16 0.14 0.13 0.12 0.13 0.13 0.19 0.26 0.27 0.26 0.28 0.32 0.37 0.38 0.37 0.37 0.43 0.49 0.47 0.49 0.54 0.57 0.58 0.53 0.54 0.64 0.73 0.80 0.83 0.84 0.79
0.40 0.74 1.35 1.20 0.90 0.43 0.27 0.18 0.15 0.21 0.38 0.22 0.17 0.18 0.16 0.15 0.21 0.17 0.13 0.18 0.25 0.23 0.23 0.27 0.30 0.31 0.34 0.37 0.36 0.42 0.46 0.42 0.46 0.50 0.56 0.53 0.48 0.45 0.45 0.56 0.71 0.78 0.80 0.76
0.74 1.13 1.36 1.04 0.81 0.36 0.25 0.19 0.17 0.34 0.43 0.21 0.18 0.18 0.17 0.20 0.25 0.20 0.17 0.21 0.23 0.18 0.19 0.23 0.26 0.29 0.36 0.38 0.35 0.39 0.44 0.43 0.46 0.49 0.54 0.49 0.45 0.45 0.44 0.50 0.64 0.73 0.80 0.82
0.64 0.86 0.86 0.77 0.86 0.47 0.26 0.26 0.39 0.44 0.25 0.17 0.15 0.15 0.15 0.14 0.12 0.13 0.15 0.20 0.21 0.17 0.16 0.16 0.20 0.25 0.31 0.34 0.34 0.39 0.45 0.46 0.48 0.50 0.47 0.46 0.47 0.48 0.49 0.51 0.59 0.70 0.80 0.86
0.50 0.62 0.61 0.56 0.50 0.35 0.29 0.36 0.36 0.28 0.19 0.14 0.14 0.13 0.12 0.12 0.11 0.13 0.16 0.18 0.20 0.19 0.18 0.17 0.19 0.22 0.28 0.31 0.33 0.40 0.46 0.43 0.46 0.46 0.44 0.43 0.46 0.47 0.49 0.54 0.61 0.70 0.78 0.82
0.33 0.35 0.44 0.40 0.28 0.23 0.24 0.26 0.25 0.20 0.16 0.14 0.14 0.13 0.13 0.12 0.12 0.14 0.17 0.18 0.19 0.19 0.18 0.18 0.20 0.23 0.29 0.32 0.33 0.38 0.43 0.39 0.38 0.39 0.42 0.40 0.44 0.49 0.53 0.57 0.62 0.67 0.76 0.84
0.28 0.31 0.38 0.36 0.22 0.19 0.19 0.20 0.20 0.17 0.15 0.14 0.15 0.15 0.13 0.13 0.14 0.15 0.17 0.18 0.19 0.22 0.21 0.20 0.22 0.23 0.30 0.34 0.36 0.40 0.38 0.36 0.35 0.35 0.42 0.47 0.49 0.54 0.58 0.61 0.63 0.66 0.68 0.83
0.20 0.26 0.34 0.33 0.23 0.24 0.23 0.20 0.19 0.18 0.17 0.18 0.18 0.17 0.14 0.15 0.18 0.17 0.17 0.19 0.21 0.24 0.25 0.23 0.24 0.26 0.31 0.35 0.42 0.42 0.36 0.34 0.36 0.39 0.42 0.49 0.54 0.55 0.56 0.56 0.59 0.67 0.69 0.73